Home > Weather > Hollywood > Past weeks

Flag for USA Past Weather in Hollywood, Florida, USA — Yesterday and Last 2 Weeks

Now
80 °F

Light rain. Partly sunny.


Feels Like: 85 °F
Forecast: 78 / 89 °F
Wind: 8 mph from West

Location: Fort Lauderdale / Hollywood International Airport

Current Time: Jun 30, 2016 at 10:13:26 AM

Latest Report: Jun 30, 2016 at 8:53 AM


Visibility: 9 mi

Pressure: 30.02 "Hg

Humidity: 81%

Dew Point: 74 °F

Location of HollywoodLocation

Past Weather in Hollywood — Graph

°F

Hollywood Temperature Yesterday

Maximum temperature yesterday: 88 °F (at 12:53 PM)
Minimum temperature yesterday: 79 °F (at 4:53 AM)
Average temperature yesterday: 84 °F

High & Low Weather Summary for the Past Weeks

 TemperatureHumidityPressure
High95 °F (Jun 18, 2:53 PM)97% (Jun 22, 5:53 AM)30.15 "Hg (Jun 22, 5:53 AM)
Low73 °F (Jun 17, 12:53 PM)47% (Jun 18, 2:53 PM)29.93 "Hg (Jun 17, 7:53 PM)
Average83 °F72%30.04 "Hg
* Reported Jun 15 8:53 AM — Jun 30 8:53 AM, Hollywood, Weather by CustomWeather, © 2016

Note: Actual official high and low records may vary slightly from our data, if they occured in-between our weather recording intervals... More about our weather records

Advertising

Hollywood Weather History for the Previous 24 Hours

Scroll right to see more
 ConditionsComfort  
Time TempWeatherWind HumidityBarometerVisibility
8:53 AM
Thu, Jun 30
80 °FLight rain. Partly sunny.8 mph81%30.02 "Hg9 mi
7:53 AM83 °FScattered clouds.No wind77%30.01 "Hg10 mi
6:53 AM81 °FPassing clouds.3 mph82%29.99 "Hg10 mi
5:53 AM81 °FPassing clouds.3 mph82%29.98 "Hg10 mi
4:53 AM82 °FPassing clouds.No wind79%29.97 "Hg10 mi
3:53 AM82 °FPartly cloudy.5 mph79%29.98 "Hg10 mi
2:53 AM83 °FPartly cloudy.7 mph77%29.98 "Hg10 mi
1:53 AM83 °FPassing clouds.5 mph77%30.00 "Hg10 mi
12:53 AM84 °FPartly cloudy.7 mph72%30.02 "Hg10 mi
11:53 PM
Wed, Jun 29
84 °FPartly cloudy.7 mph72%30.03 "Hg10 mi
10:53 PM84 °FPassing clouds.6 mph72%30.04 "Hg10 mi
9:53 PM84 °FPassing clouds.7 mph72%30.02 "Hg10 mi
8:53 PM84 °FPartly sunny.7 mph72%30.00 "Hg10 mi
7:53 PM85 °FPartly sunny.9 mph68%29.98 "Hg10 mi
6:53 PM85 °FPartly sunny.10 mph70%29.96 "Hg10 mi
5:53 PM85 °FPartly sunny.12 mph72%29.98 "Hg10 mi
4:53 PM85 °FPartly sunny.13 mph70%29.96 "Hg10 mi
3:53 PM86 °FThunderstorms. Partly sunny.12 mph67%29.97 "Hg10 mi
2:53 PM85 °FBroken clouds.12 mph70%29.99 "Hg10 mi
1:53 PM88 °FBroken clouds.14 mph63%29.99 "Hg10 mi
12:53 PM88 °FBroken clouds.12 mph63%30.00 "Hg10 mi
11:53 AM81 °FBroken clouds.8 mph79%30.03 "Hg10 mi
10:53 AM86 °FBroken clouds.13 mph70%30.02 "Hg10 mi
Weather by CustomWeather, © 2016

See weather overviewHow to use our weather pages